AirNav   Everest Fuels
 
 1606 users online  

KVBT Bentonville Municipal Airport/Louise M Thaden Field
Bentonville, Arkansas, USA

GOING TO BENTONVILLE?


FAA INFORMATION EFFECTIVE 17 JUNE 2021

Location

FAA Identifier: VBT
Lat/Long: 36-20-43.2070N 094-13-10.2120W
36-20.720117N 094-13.170200W
36.3453353,-94.2195033
(estimated)
Elevation: 1298.1 ft. / 395.7 m (surveyed)
Variation: 01E (2020)
From city: 2 miles S of BENTONVILLE, AR
Time zone: UTC -5 (UTC -6 during Standard Time)
Zip code: 72712

Airport Operations

Airport use: Open to the public
Activation date: 09/1946
Control tower: no
ARTCC: MEMPHIS CENTER
FSS: JONESBORO FLIGHT SERVICE STATION
NOTAMs facility: VBT (NOTAM-D service available)
Attendance: OCT-MAR 0800-1700, APR-SEP 0700-1900
FOR SVC AFT HRS CALL 479-367-9800.
Wind indicator: lighted
Segmented circle: no
Lights: ACTVT MIRL RWY 18/36 - CTAF.
Beacon: white-green (lighted land airport)
Operates sunset to sunrise.

Airport Communications

CTAF/UNICOM: 122.975
WX AWOS-3PT: 134.975 (479-273-9198)
RAZORBACK APPROACH: 121.0
RAZORBACK DEPARTURE: 121.0
CLEARANCE DELIVERY: 121.05
WX AWOS-3PT at ROG (6 nm E): 134.375 (479-631-9196)
WX ASOS at XNA (6 nm SW): 119.425 (479-203-0109)
WX AWOS-3 at ASG (11 nm SE): 124.675 (479-750-2967)
WX AWOS-3PT at SLG (16 nm SW): 118.375 (479-524-9893)
  • APCH/DEP SVC PRVDD BY MEMPHIS ARTCC ON FREQS126.1/269.0 (FAYETTEVILLE RCAG) WHEN RAZORBACK APCH CTL CLSD.

Nearby radio navigation aids

VOR radial/distance  VOR name  Freq  Var
RZCr317/7.6RAZORBACK VORTAC116.4004E
EOSr154/31.6NEOSHO VOR/DME117.3007E

 
NDB name  Hdg/Dist  Freq  Var  ID
SILOAM SPRINGS050/16.028404ESLG ... .-.. --.

Airport Services

Fuel available: 100LL JET-A
Parking: hangars and tiedowns
Airframe service: MAJOR
Powerplant service: MAJOR
Bottled oxygen: HIGH
Bulk oxygen: NONE

Runway Information

Runway 18/36

Dimensions: 4426 x 65 ft. / 1349 x 20 m
Surface: asphalt, in fair condition
Weight bearing capacity: 
Single wheel: 12.5
Double wheel: 21.5
Runway edge lights: medium intensity
Runway edge markings: MKGS FADED.
RUNWAY 18  RUNWAY 36
Latitude: 36-21.079725N36-20.350382N
Longitude: 094-13.156780W094-13.163385W
Elevation: 1289.3 ft.1292.6 ft.
Traffic pattern: leftleft
Runway heading: 179 magnetic, 180 true359 magnetic, 000 true
Displaced threshold: 230 ft.no
Declared distances: LDA:4196ASDA:4196 LDA:4196
Markings: nonprecision, in poor conditionnonprecision, in poor condition
Runway end identifier lights: yes
REIL LGTS OTS INDEFLY
yes
REIL LGTS OTS INDEFLY
Touchdown point: yes, no lightsyes, no lights
Obstructions: 8 ft. brush, 360 ft. from runway, 20:1 slope to clear
APCH RATIO 50:1 TO DSPLCD THR.
12 ft. pole, 615 ft. from runway, 170 ft. left of centerline, 34:1 slope to clear

Runway 17/35

Dimensions: 2448 x 75 ft. / 746 x 23 m
Surface: turf
RUNWAY 17  RUNWAY 35
Latitude: 36-20.931000N36-20.527500N
Longitude: 094-13.186667W094-13.190333W
Elevation: 1288.7 ft.1292.5 ft.
Traffic pattern: leftleft
Runway heading: 179 magnetic, 180 true359 magnetic, 000 true
Declared distances: TORA:2448 TODA:2448TORA:2448 TODA:2448

Airport Ownership and Management from official FAA records

Ownership: Publicly-owned
Owner: CITY OF BENTONVILLE
117 WEST CENTRAL
BENTONVILLE, AR 72712
Phone 479-271-3112
Manager: CHUCK CHADWICK
117 WEST CENTRAL
BENTONVILLE, AR 72712
Phone 479-418-8675

Airport Operational Statistics

Aircraft based on the field: 49
Single engine airplanes: 42
Multi engine airplanes: 4
Jet airplanes: 1
Helicopters: 2
    
Aircraft operations: avg 88/day *
65% local general aviation
34% transient general aviation
<1% air taxi
<1% military
* for 12-month period ending 30 June 2019

Additional Remarks

BEGINNING 60 FT BYD NORTH END OF RY 18 PAVEMENT, GND HAS APROXLY 12 FT DROP OVER 60 FT LENGTH TO POND.
FOR CD CTC RAZORBACK APCH 479-649-2416, WHEN APCH CLSD CTC MEMPHIS ARTCC AT 901-368-8453/8449.
MIGRATORY BIRDS ON & INVOF ARPT
RWY 17/35 VFR DALGT OPNS ONLY.
SIMUL USE OF RWYS 17/35 AND 18/36 NA.

Instrument Procedures

NOTE: All procedures below are presented as PDF files. If you need a reader for these files, you should download the free Adobe Reader.

NOT FOR NAVIGATION. Please procure official charts for flight.
FAA instrument procedures published for use from 17 June 2021 at 0901Z to 15 July 2021 at 0900Z.

 
IAPs - Instrument Approach Procedures
RNAV (GPS) RWY 18   download (233KB)
RNAV (GPS) RWY 36   download (248KB)
NOTE: Special Alternate Minimums apply   download (131KB)
 
Departure Procedures
BENTON SIX   download (228KB)
NOTE: Special Take-Off Minimums/Departure Procedures apply   download (131KB)

Other nearby airports with instrument procedures:

KROG - Rogers Executive Airport - Carter Field (6 nm E)
KXNA - Northwest Arkansas National Airport (6 nm SW)
5M5 - Crystal Lake Airport (11 nm W)
KASG - Springdale Municipal Airport (11 nm SE)
KSLG - Smith Field Airport (16 nm SW)
 
Loc | Ops | Rwys | IFR | FBO | Links
Com | Nav | Svcs | Stats | Notes
Area around KVBT (Bentonville Municipal Airport/Louise M Thaden Field)
 
Road maps at: MapQuest Bing Google
 
Aerial photo
WARNING: Photo may not be current or correct
Aerial photo of KVBT (Bentonville Municipal Airport/Louise M Thaden Field)
Photo courtesy of the Arkansas Department of Aeronautics
Taken in the Spring of 2007

Do you have a better or more recent aerial photo of Bentonville Municipal Airport/Louise M Thaden Field that you would like to share? If so, please send us your photo.

 
Sectional chart

 
Airport diagram
CAUTION: Diagram may not be current
Diagram of KVBT (Bentonville Municipal Airport/Louise M Thaden Field)
 
Airport distance calculator
Flying to Bentonville Municipal Airport/Louise M Thaden Field? Find the distance to fly.

From to KVBT

Sunrise and sunset
Times for 17-Jun-2021
 Local
(UTC-5)
 Zulu
(UTC)
Morning civil twilight05:2910:29
Sunrise06:0011:00
Sunset20:3601:36
Evening civil twilight21:0602:06

Current date and time
Zulu (UTC)  17-Jun-2021 18:14:35
Local (UTC-5)  17-Jun-2021 13:14:35
 
METAR
KVBT 171756Z AUTO 29006KT 10SM CLR 33/21 A3005 RMK AO2 SLP162 6//// T03280206 10328 20239 TSNO
KXNA 
5nm SW 
171753Z 19005KT 10SM CLR 33/21 A3004 RMK AO2 SLP153 T03280206 10339 20228 57010
KROG 
7nm E 
171758Z 27007KT 10SM CLR 33/20 A3004 RMK AO2 SLP153 6//// T03330200 10333 20233 58010
KASG 
12nm SE 
171748Z 24008KT 10SM CLR 32/22 A3004
KSLG 
15nm SW 
171756Z AUTO VRB03KT 10SM CLR 32/22 A3004 RMK AO2 SLP159 T03220217 10322 20217 58009 TSNO
KFYV 
20nm S 
171753Z 25006KT 10SM CLR 33/21 A3004 RMK AO2 SLP155 T03280206 10328 20217 58008
TAF
KXNA 
5nm SW 
171720Z 1718/1818 25007KT P6SM SKC FM172100 23007KT P6SM VCTS SCT040CB FM180100 VRB03KT P6SM SCT250 FM181600 21009KT P6SM SCT250
KROG 
7nm E 
171720Z 1718/1818 28005KT P6SM SKC FM172100 23007KT P6SM VCTS SCT040CB FM180100 VRB03KT P6SM SCT250 FM181600 21009KT P6SM SCT250
KFYV 
20nm S 
171720Z 1718/1818 23006KT P6SM SCT250 FM172100 23007KT P6SM VCTS SCT040CB FM180100 00000KT P6SM SCT250 FM181600 22008KT P6SM SCT250
NOTAMs
Click for the latest NOTAMs
NOTAMs are issued by the DoD/FAA and will open in a separate window not controlled by AirNav.

 

 
 

FBO, Fuel Providers, and Aircraft Ground Support

  
 Business Name 
 
 Contact 
 
 Services / Description 
 
Fuel Prices
 
Comments
  
Summit Aviation UNICOM 122.975
479-254-0817
479-273-3590
[web site]
[email]
2 Miles from Walmart home office and minutes from Crystal Bridges Museum of American Art. No landing fees, No parking fees. Contract Fuel prices.
More info and photos of Summit Aviation
 
NATA Safety 1st   Titan Contract Fuel   Titan Rewards   Crew cars   Enterprise Rent-A-Car   Certificated Pilot School   Cessna Service Center   PSI FAA Test Center  
 
Titan
100LL Jet A
FS $4.60 $4.45 
 Updated 09-Jun-2021
 
   7 read write
FS=Full service
Update Fuel Prices
 

Would you like to see your business listed on this page?

 If your business provides an interesting product or service to pilots, flight crews, aircraft, or users of the Bentonville Municipal Airport/Louise M Thaden Field, you should consider listing it here.  To start the listing process, click on the button below
 
Add a business
 

Other Pages about Bentonville Municipal Airport/Louise M Thaden Field

Update a link
 
Copyright © AirNav, LLC. All rights reserved. Privacy Policy  Contact